Time,TemperatureF,DewpointF,PressureIn,WindDirection,WindDirectionDegrees,WindSpeedMPH,WindSpeedGustMPH,Humidity,HourlyPrecipIn,Conditions,Clouds,dailyrainin,SoftwareType,DateUTC
2013-05-01 00:03:00,35.7,32.8,30.46,ESE,121,0.0,0.0,89,0.00,,SKC,0.00,VWS V14.01,2013-05-01 07:03:00,
2013-05-01 00:08:00,35.7,33.1,30.46,ESE,121,0.0,1.0,90,0.00,,SKC,0.00,VWS V14.01,2013-05-01 07:08:00,
2013-05-01 00:13:00,35.7,33.1,30.46,ESE,121,0.0,1.0,90,0.00,,SKC,0.00,VWS V14.01,2013-05-01 07:13:00,
2013-05-01 00:18:00,35.7,33.1,30.47,East,84,2.0,2.0,90,0.00,,SKC,0.00,VWS V14.01,2013-05-01 07:18:00,
2013-05-01 00:23:00,35.4,32.8,30.47,East,83,1.0,2.0,90,0.00,,SKC,0.00,VWS V14.01,2013-05-01 07:23:00,
2013-05-01 00:28:00,35.2,32.8,30.47,East,84,2.0,2.0,91,0.00,,SKC,0.00,VWS V14.01,2013-05-01 07:28:00,
2013-05-01 00:33:00,34.9,32.5,30.47,East,80,2.0,2.0,91,0.00,,SKC,0.00,VWS V14.01,2013-05-01 07:33:00,
2013-05-01 00:38:00,34.9,32.5,30.48,East,80,2.0,2.0,91,0.00,,SKC,0.00,VWS V14.01,2013-05-01 07:38:00,
2013-05-01 00:43:00,34.7,32.6,30.48,East,80,0.0,2.0,92,0.00,,SKC,0.00,VWS V14.01,2013-05-01 07:43:00,
2013-05-01 00:48:00,34.4,32.3,30.48,East,80,0.0,0.0,92,0.00,,SKC,0.00,VWS V14.01,2013-05-01 07:48:00,
2013-05-01 00:53:00,34.2,32.1,30.48,East,80,1.0,1.0,92,0.00,,SKC,0.00,VWS V14.01,2013-05-01 07:53:00,
2013-05-01 00:58:00,34.1,32.3,30.49,East,80,2.0,2.0,93,0.00,,SKC,0.00,VWS V14.01,2013-05-01 07:58:00,
2013-05-01 01:03:00,33.9,32.1,30.49,ENE,78,2.0,3.0,93,0.00,,SKC,0.00,VWS V14.01,2013-05-01 08:03:00,
2013-05-01 01:08:00,33.7,31.9,30.49,East,80,3.0,3.0,93,0.00,,SKC,0.00,VWS V14.01,2013-05-01 08:08:00,
2013-05-01 01:13:00,33.7,32.2,30.49,East,80,2.0,3.0,94,0.00,,SKC,0.00,VWS V14.01,2013-05-01 08:13:00,
2013-05-01 01:18:00,33.6,32.1,30.49,East,81,1.0,1.0,94,0.00,,SKC,0.00,VWS V14.01,2013-05-01 08:18:00,
2013-05-01 01:23:00,33.5,32.0,30.49,East,80,1.0,1.0,94,0.00,,SKC,0.00,VWS V14.01,2013-05-01 08:23:00,
2013-05-01 01:28:00,33.5,32.0,30.49,East,89,2.0,2.0,94,0.00,,SKC,0.00,VWS V14.01,2013-05-01 08:28:00,
2013-05-01 01:33:00,33.4,31.9,30.49,East,87,1.0,2.0,94,0.00,,SKC,0.00,VWS V14.01,2013-05-01 08:33:00,
2013-05-01 01:38:00,33.2,31.7,30.50,East,86,1.0,2.0,94,0.00,,SKC,0.00,VWS V14.01,2013-05-01 08:38:00,
2013-05-01 01:43:00,33.0,31.5,30.50,East,88,1.0,2.0,94,0.00,,SKC,0.00,VWS V14.01,2013-05-01 08:43:00,
2013-05-01 01:48:00,32.9,31.4,30.50,East,80,2.0,2.0,94,0.00,,SKC,0.00,VWS V14.01,2013-05-01 08:48:00,
2013-05-01 01:53:00,32.8,31.3,30.50,East,80,2.0,3.0,94,0.00,,SKC,0.00,VWS V14.01,2013-05-01 08:53:00,
2013-05-01 01:58:00,32.8,31.5,30.50,ENE,71,2.0,3.0,95,0.00,,SKC,0.00,VWS V14.01,2013-05-01 08:58:00,
2013-05-01 02:03:00,32.8,31.5,30.50,East,80,2.0,2.0,95,0.00,,SKC,0.00,VWS V14.01,2013-05-01 09:03:00,
2013-05-01 02:08:00,32.8,31.5,30.51,East,84,0.0,2.0,95,0.00,,SKC,0.00,VWS V14.01,2013-05-01 09:08:00,
2013-05-01 02:13:00,32.6,31.1,30.51,East,83,0.0,2.0,94,0.00,,SKC,0.00,VWS V14.01,2013-05-01 09:13:00,
2013-05-01 02:18:00,32.4,31.1,30.51,East,84,0.0,0.0,95,0.00,,SKC,0.00,VWS V14.01,2013-05-01 09:18:00,
2013-05-01 02:23:00,32.2,30.9,30.51,East,84,0.0,0.0,95,0.00,,SKC,0.00,VWS V14.01,2013-05-01 09:23:00,
2013-05-01 02:28:00,32.1,30.8,30.51,East,85,0.0,0.0,95,0.00,,SKC,0.00,VWS V14.01,2013-05-01 09:28:00,
2013-05-01 02:33:00,32.0,30.7,30.51,East,84,0.0,0.0,95,0.00,,SKC,0.00,VWS V14.01,2013-05-01 09:33:00,
2013-05-01 02:38:00,32.1,30.8,30.51,ENE,78,0.0,0.0,95,0.00,,SKC,0.00,VWS V14.01,2013-05-01 09:38:00,
2013-05-01 02:43:00,32.0,30.7,30.51,ENE,78,0.0,0.0,95,0.00,,SKC,0.00,VWS V14.01,2013-05-01 09:43:00,
2013-05-01 02:48:00,32.0,30.7,30.51,ENE,78,0.0,0.0,95,0.00,,SKC,0.00,VWS V14.01,2013-05-01 09:48:00,
2013-05-01 02:53:00,31.9,30.6,30.51,East,84,2.0,2.0,95,0.00,,SKC,0.00,VWS V14.01,2013-05-01 09:53:00,
2013-05-01 02:58:00,31.9,30.9,30.51,East,86,1.0,2.0,96,0.00,,SKC,0.00,VWS V14.01,2013-05-01 09:58:00,
2013-05-01 03:03:00,32.0,31.0,30.51,East,83,1.0,2.0,96,0.00,,SKC,0.00,VWS V14.01,2013-05-01 10:03:00,
2013-05-01 03:08:00,31.8,30.5,30.51,ENE,77,1.0,2.0,95,0.00,,SKC,0.00,VWS V14.01,2013-05-01 10:08:00,
2013-05-01 03:13:00,31.7,30.7,30.51,ENE,77,1.0,2.0,96,0.00,,SKC,0.00,VWS V14.01,2013-05-01 10:13:00,
2013-05-01 03:18:00,31.7,30.7,30.51,ENE,76,1.0,1.0,96,0.00,,SKC,0.00,VWS V14.01,2013-05-01 10:18:00,
2013-05-01 03:23:00,31.6,30.6,30.52,ENE,76,1.0,1.0,96,0.00,,SKC,0.00,VWS V14.01,2013-05-01 10:23:00,
2013-05-01 03:28:00,31.4,30.4,30.52,East,88,0.0,1.0,96,0.00,,SKC,0.00,VWS V14.01,2013-05-01 10:28:00,
2013-05-01 03:33:00,31.3,30.3,30.52,East,88,0.0,0.0,96,0.00,,SKC,0.00,VWS V14.01,2013-05-01 10:33:00,
2013-05-01 03:38:00,31.2,30.2,30.51,East,87,0.0,0.0,96,0.00,,SKC,0.00,VWS V14.01,2013-05-01 10:38:00,
2013-05-01 03:43:00,31.2,30.2,30.52,East,86,0.0,0.0,96,0.00,,SKC,0.00,VWS V14.01,2013-05-01 10:43:00,
2013-05-01 03:48:00,31.1,30.1,30.52,East,85,0.0,0.0,96,0.00,,SKC,0.00,VWS V14.01,2013-05-01 10:48:00,
2013-05-01 03:53:00,31.0,30.0,30.52,East,85,0.0,0.0,96,0.00,,SKC,0.00,VWS V14.01,2013-05-01 10:53:00,
2013-05-01 03:58:00,31.2,30.2,30.52,East,86,0.0,0.0,96,0.00,,SKC,0.00,VWS V14.01,2013-05-01 10:58:00,
2013-05-01 04:03:00,31.2,30.2,30.52,East,85,0.0,0.0,96,0.00,,SKC,0.00,VWS V14.01,2013-05-01 11:03:00,
2013-05-01 04:09:00,31.1,30.1,30.52,East,85,0.0,0.0,96,0.00,,SKC,0.00,VWS V14.01,2013-05-01 11:09:00,
2013-05-01 04:14:00,31.0,30.0,30.52,East,80,0.0,0.0,96,0.00,,SKC,0.00,VWS V14.01,2013-05-01 11:14:00,
2013-05-01 04:19:00,30.9,29.9,30.52,East,80,0.0,0.0,96,0.00,,SKC,0.00,VWS V14.01,2013-05-01 11:19:00,
2013-05-01 04:24:00,30.7,29.7,30.53,East,79,0.0,0.0,96,0.00,,SKC,0.00,VWS V14.01,2013-05-01 11:24:00,
2013-05-01 04:29:00,30.6,29.6,30.53,East,79,0.0,0.0,96,0.00,,SKC,0.00,VWS V14.01,2013-05-01 11:29:00,
2013-05-01 04:34:00,30.6,29.6,30.53,East,80,0.0,0.0,96,0.00,,SKC,0.00,VWS V14.01,2013-05-01 11:34:00,
2013-05-01 04:39:00,30.9,30.1,30.54,East,80,0.0,0.0,97,0.00,,SKC,0.00,VWS V14.01,2013-05-01 11:39:00,
2013-05-01 04:44:00,31.0,30.2,30.54,East,80,0.0,0.0,97,0.00,,SKC,0.00,VWS V14.01,2013-05-01 11:44:00,
2013-05-01 04:49:00,31.0,30.2,30.54,East,80,0.0,0.0,97,0.00,,SKC,0.00,VWS V14.01,2013-05-01 11:49:00,
2013-05-01 04:54:00,30.8,30.0,30.54,ENE,76,0.0,0.0,97,0.00,,SKC,0.00,VWS V14.01,2013-05-01 11:54:00,
2013-05-01 04:59:00,30.6,29.6,30.54,ENE,78,0.0,0.0,96,0.00,,SKC,0.00,VWS V14.01,2013-05-01 11:59:00,
2013-05-01 05:04:00,30.4,29.4,30.54,East,80,0.0,0.0,96,0.00,,SKC,0.00,VWS V14.01,2013-05-01 12:04:00,
2013-05-01 05:09:00,30.3,29.3,30.54,ENE,76,0.0,0.0,96,0.00,,SKC,0.00,VWS V14.01,2013-05-01 12:09:00,
2013-05-01 05:14:00,30.2,29.5,30.54,East,89,0.0,0.0,97,0.00,,SKC,0.00,VWS V14.01,2013-05-01 12:14:00,
2013-05-01 05:19:00,30.1,29.4,30.54,ENE,78,0.0,0.0,97,0.00,,SKC,0.00,VWS V14.01,2013-05-01 12:19:00,
2013-05-01 05:24:00,30.0,29.2,30.55,East,82,0.0,0.0,97,0.00,,SKC,0.00,VWS V14.01,2013-05-01 12:24:00,
2013-05-01 05:29:00,29.9,29.1,30.55,ENE,78,1.0,2.0,97,0.00,,SKC,0.00,VWS V14.01,2013-05-01 12:29:00,
2013-05-01 05:34:00,29.9,29.1,30.55,East,88,1.0,2.0,97,0.00,,SKC,0.00,VWS V14.01,2013-05-01 12:34:00,
2013-05-01 05:39:00,29.8,29.0,30.55,East,84,1.0,2.0,97,0.00,,SKC,0.00,VWS V14.01,2013-05-01 12:39:00,
2013-05-01 05:44:00,29.8,29.0,30.55,East,84,1.0,2.0,97,0.00,,SKC,0.00,VWS V14.01,2013-05-01 12:44:00,
2013-05-01 05:49:00,29.8,29.0,30.55,East,83,1.0,1.0,97,0.00,,SKC,0.00,VWS V14.01,2013-05-01 12:49:00,
2013-05-01 05:54:00,29.7,29.0,30.55,ENE,76,1.0,1.0,97,0.00,,SKC,0.00,VWS V14.01,2013-05-01 12:54:00,
2013-05-01 05:59:00,29.7,29.0,30.55,ENE,76,1.0,1.0,97,0.00,,SKC,0.00,VWS V14.01,2013-05-01 12:59:00,
2013-05-01 06:04:00,29.6,28.9,30.56,ENE,71,0.0,1.0,97,0.00,,SKC,0.00,VWS V14.01,2013-05-01 13:04:00,
2013-05-01 06:09:00,29.7,29.0,30.56,ENE,71,1.0,1.0,97,0.00,,SKC,0.00,VWS V14.01,2013-05-01 13:09:00,
2013-05-01 06:14:00,29.8,29.0,30.56,ENE,71,1.0,2.0,97,0.00,,SKC,0.00,VWS V14.01,2013-05-01 13:14:00,
2013-05-01 06:19:00,29.8,29.0,30.56,East,80,0.0,1.0,97,0.00,,SKC,0.00,VWS V14.01,2013-05-01 13:19:00,
2013-05-01 06:24:00,29.8,29.0,30.56,East,79,0.0,1.0,97,0.00,,SKC,0.00,VWS V14.01,2013-05-01 13:24:00,
2013-05-01 06:29:00,29.7,29.0,30.56,East,80,0.0,1.0,97,0.00,,SKC,0.00,VWS V14.01,2013-05-01 13:29:00,
2013-05-01 06:34:00,29.7,29.0,30.57,East,80,0.0,0.0,97,0.00,,SKC,0.00,VWS V14.01,2013-05-01 13:34:00,
2013-05-01 06:39:00,29.9,29.1,30.57,ENE,76,2.0,2.0,97,0.00,,SKC,0.00,VWS V14.01,2013-05-01 13:39:00,
2013-05-01 06:44:00,30.4,29.9,30.57,ENE,68,2.0,4.0,98,0.00,,SKC,0.00,VWS V14.01,2013-05-01 13:44:00,
2013-05-01 06:49:00,30.7,30.2,30.57,ENE,78,1.0,2.0,98,0.00,,SKC,0.00,VWS V14.01,2013-05-01 13:49:00,
2013-05-01 06:54:00,31.2,30.7,30.57,ENE,74,1.0,3.0,98,0.00,,SKC,0.00,VWS V14.01,2013-05-01 13:54:00,
2013-05-01 06:59:00,31.8,31.3,30.58,ENE,76,2.0,3.0,98,0.00,,SKC,0.00,VWS V14.01,2013-05-01 13:59:00,
2013-05-01 07:04:00,32.3,31.8,30.58,East,93,1.0,3.0,98,0.00,,SKC,0.00,VWS V14.01,2013-05-01 14:04:00,
2013-05-01 07:09:00,32.9,32.1,30.58,ENE,76,1.0,3.0,97,0.00,,SKC,0.00,VWS V14.01,2013-05-01 14:09:00,
2013-05-01 07:14:00,33.4,32.6,30.58,East,80,2.0,3.0,97,0.00,,SKC,0.00,VWS V14.01,2013-05-01 14:14:00,
2013-05-01 07:19:00,33.7,32.7,30.58,ENE,76,1.0,2.0,96,0.00,,SKC,0.00,VWS V14.01,2013-05-01 14:19:00,
2013-05-01 07:24:00,34.1,33.1,30.58,ENE,78,1.0,2.0,96,0.00,,SKC,0.00,VWS V14.01,2013-05-01 14:24:00,
2013-05-01 07:29:00,34.5,33.2,30.58,East,80,1.0,2.0,95,0.00,,SKC,0.00,VWS V14.01,2013-05-01 14:29:00,
2013-05-01 07:34:00,35.2,33.9,30.59,East,79,0.0,2.0,95,0.00,,SKC,0.00,VWS V14.01,2013-05-01 14:34:00,
2013-05-01 07:39:00,36.5,35.2,30.59,East,80,0.0,2.0,95,0.00,,SKC,0.00,VWS V14.01,2013-05-01 14:39:00,
2013-05-01 07:44:00,37.1,35.0,30.59,East,80,1.0,2.0,92,0.00,,SKC,0.00,VWS V14.01,2013-05-01 14:44:00,
2013-05-01 07:49:00,37.4,35.0,30.59,ENE,78,1.0,2.0,91,0.00,,SKC,0.00,VWS V14.01,2013-05-01 14:49:00,
2013-05-01 07:54:00,38.0,35.3,30.59,East,80,0.0,2.0,90,0.00,,SKC,0.00,VWS V14.01,2013-05-01 14:54:00,
2013-05-01 07:59:00,39.1,36.1,30.59,East,80,0.0,2.0,89,0.00,,SKC,0.00,VWS V14.01,2013-05-01 14:59:00,
2013-05-01 08:04:00,39.7,35.9,30.59,East,79,0.0,0.0,86,0.00,,SKC,0.00,VWS V14.01,2013-05-01 15:04:00,
2013-05-01 08:09:00,39.7,35.6,30.59,North,350,0.0,1.0,85,0.00,,SKC,0.00,VWS V14.01,2013-05-01 15:09:00,
2013-05-01 08:14:00,40.3,36.2,30.59,North,350,0.0,1.0,85,0.00,,SKC,0.00,VWS V14.01,2013-05-01 15:14:00,
2013-05-01 08:19:00,41.0,35.9,30.59,East,80,0.0,1.0,82,0.00,,SKC,0.00,VWS V14.01,2013-05-01 15:19:00,
2013-05-01 08:24:00,42.0,36.3,30.59,East,94,1.0,2.0,80,0.00,,SKC,0.00,VWS V14.01,2013-05-01 15:24:00,
2013-05-01 08:29:00,42.4,36.7,30.59,ENE,75,0.0,2.0,80,0.00,,SKC,0.00,VWS V14.01,2013-05-01 15:29:00,
2013-05-01 08:34:00,42.7,36.7,30.59,East,79,0.0,2.0,79,0.00,,SKC,0.00,VWS V14.01,2013-05-01 15:34:00,
2013-05-01 08:39:00,43.2,37.1,30.59,East,79,0.0,2.0,79,0.00,,SKC,0.00,VWS V14.01,2013-05-01 15:39:00,
2013-05-01 08:44:00,43.9,37.2,30.59,WNW,288,3.0,3.0,77,0.00,,SKC,0.00,VWS V14.01,2013-05-01 15:44:00,
2013-05-01 08:49:00,43.4,36.7,30.59,West,281,0.0,3.0,77,0.00,,SKC,0.00,VWS V14.01,2013-05-01 15:49:00,
2013-05-01 08:54:00,43.3,36.6,30.59,West,277,0.0,3.0,77,0.00,,SKC,0.00,VWS V14.01,2013-05-01 15:54:00,
2013-05-01 08:59:00,43.6,36.9,30.59,West,269,0.0,3.0,77,0.00,,SKC,0.00,VWS V14.01,2013-05-01 15:59:00,
2013-05-01 09:04:00,43.9,37.2,30.59,West,264,0.0,2.0,77,0.00,,SKC,0.00,VWS V14.01,2013-05-01 16:04:00,
2013-05-01 09:10:00,44.2,37.1,30.59,WSW,256,0.0,2.0,76,0.00,,SKC,0.00,VWS V14.01,2013-05-01 16:10:00,
2013-05-01 09:15:00,44.5,36.7,30.58,WNW,288,0.0,2.0,74,0.00,,SKC,0.00,VWS V14.01,2013-05-01 16:15:00,
2013-05-01 09:20:00,44.8,37.0,30.58,WSW,254,2.0,3.0,74,0.00,,SKC,0.00,VWS V14.01,2013-05-01 16:20:00,
2013-05-01 09:25:00,45.4,38.0,30.59,West,274,3.0,4.0,75,0.00,,SKC,0.00,VWS V14.01,2013-05-01 16:25:00,
2013-05-01 09:30:00,45.7,37.9,30.58,West,276,2.0,4.0,74,0.00,,SKC,0.00,VWS V14.01,2013-05-01 16:30:00,
2013-05-01 09:35:00,46.0,38.2,30.58,West,261,3.0,3.0,74,0.00,,SKC,0.00,VWS V14.01,2013-05-01 16:35:00,
2013-05-01 09:40:00,46.4,38.2,30.59,WSW,254,5.0,5.0,73,0.00,,SKC,0.00,VWS V14.01,2013-05-01 16:40:00,
2013-05-01 09:45:00,46.7,37.1,30.59,West,263,4.0,5.0,69,0.00,,SKC,0.00,VWS V14.01,2013-05-01 16:45:00,
2013-05-01 09:50:00,46.8,35.7,30.59,WSW,254,3.0,4.0,65,0.00,,SKC,0.00,VWS V14.01,2013-05-01 16:50:00,
2013-05-01 09:55:00,47.1,36.3,30.58,WSW,256,4.0,4.0,66,0.00,,SKC,0.00,VWS V14.01,2013-05-01 16:55:00,
2013-05-01 10:00:00,47.5,36.3,30.58,WSW,245,2.0,4.0,65,0.00,,SKC,0.00,VWS V14.01,2013-05-01 17:00:00,
2013-05-01 10:05:00,47.6,36.0,30.58,West,273,2.0,5.0,64,0.00,,SKC,0.00,VWS V14.01,2013-05-01 17:05:00,
2013-05-01 10:10:00,47.9,35.9,30.58,West,261,5.0,5.0,63,0.00,,SKC,0.00,VWS V14.01,2013-05-01 17:10:00,
2013-05-01 10:15:00,48.0,36.0,30.58,WSW,253,4.0,6.0,63,0.00,,SKC,0.00,VWS V14.01,2013-05-01 17:15:00,
2013-05-01 10:20:00,48.1,36.1,30.58,WSW,250,5.0,5.0,63,0.00,,SKC,0.00,VWS V14.01,2013-05-01 17:20:00,
2013-05-01 10:25:00,48.4,36.4,30.58,WSW,255,3.0,6.0,63,0.00,,SKC,0.00,VWS V14.01,2013-05-01 17:25:00,
2013-05-01 10:30:00,48.5,36.5,30.58,SW,226,4.0,6.0,63,0.00,,SKC,0.00,VWS V14.01,2013-05-01 17:30:00,
2013-05-01 10:35:00,48.9,36.5,30.58,SW,227,4.0,6.0,62,0.00,,SKC,0.00,VWS V14.01,2013-05-01 17:35:00,
2013-05-01 10:40:00,49.3,36.8,30.58,SW,217,4.0,6.0,62,0.00,,SKC,0.00,VWS V14.01,2013-05-01 17:40:00,
2013-05-01 10:45:00,49.7,36.4,30.58,SW,233,3.0,6.0,60,0.00,,SKC,0.00,VWS V14.01,2013-05-01 17:45:00,
2013-05-01 10:50:00,50.2,36.9,30.59,SW,233,5.0,6.0,60,0.00,,SKC,0.00,VWS V14.01,2013-05-01 17:50:00,
2013-05-01 10:55:00,50.6,36.8,30.59,WSW,238,4.0,6.0,59,0.00,,SKC,0.00,VWS V14.01,2013-05-01 17:55:00,
2013-05-01 11:00:00,50.9,36.7,30.59,SW,219,4.0,6.0,58,0.00,,SKC,0.00,VWS V14.01,2013-05-01 18:00:00,
2013-05-01 11:05:00,51.3,37.9,30.59,SW,233,4.0,5.0,60,0.00,,SKC,0.00,VWS V14.01,2013-05-01 18:05:00,
2013-05-01 11:10:00,51.4,38.0,30.59,WSW,241,4.0,6.0,60,0.00,,SKC,0.00,VWS V14.01,2013-05-01 18:10:00,
2013-05-01 11:15:00,51.7,39.5,30.59,West,267,5.0,7.0,63,0.00,,SKC,0.00,VWS V14.01,2013-05-01 18:15:00,
2013-05-01 11:20:00,52.1,39.9,30.59,WSW,257,5.0,7.0,63,0.00,,SKC,0.00,VWS V14.01,2013-05-01 18:20:00,
2013-05-01 11:25:00,52.0,39.4,30.59,WSW,237,9.0,10.0,62,0.00,,SKC,0.00,VWS V14.01,2013-05-01 18:25:00,
2013-05-01 11:30:00,52.1,39.5,30.58,WSW,251,7.0,10.0,62,0.00,,SKC,0.00,VWS V14.01,2013-05-01 18:30:00,
2013-05-01 11:35:00,52.2,39.2,30.58,WSW,237,6.0,8.0,61,0.00,,SKC,0.00,VWS V14.01,2013-05-01 18:35:00,
2013-05-01 11:40:00,52.5,38.6,30.58,WSW,251,5.0,8.0,59,0.00,,SKC,0.00,VWS V14.01,2013-05-01 18:40:00,
2013-05-01 11:45:00,52.9,39.0,30.58,WSW,242,7.0,7.0,59,0.00,,SKC,0.00,VWS V14.01,2013-05-01 18:45:00,
2013-05-01 11:50:00,53.1,38.3,30.58,WSW,252,3.0,7.0,57,0.00,,SKC,0.00,VWS V14.01,2013-05-01 18:50:00,
2013-05-01 11:55:00,53.7,38.8,30.58,WSW,242,5.0,7.0,57,0.00,,SKC,0.00,VWS V14.01,2013-05-01 18:55:00,
2013-05-01 12:00:00,54.1,38.8,30.58,West,260,2.0,4.0,56,0.00,,SKC,0.00,VWS V14.01,2013-05-01 19:00:00,
2013-05-01 12:05:00,54.2,39.3,30.58,WSW,252,6.0,7.0,57,0.00,,SKC,0.00,VWS V14.01,2013-05-01 19:05:00,
2013-05-01 12:10:00,54.2,39.3,30.58,West,264,6.0,9.0,57,0.00,,SKC,0.00,VWS V14.01,2013-05-01 19:10:00,
2013-05-01 12:15:00,54.5,39.6,30.58,WSW,245,8.0,8.0,57,0.00,,SKC,0.00,VWS V14.01,2013-05-01 19:15:00,
2013-05-01 12:20:00,54.7,38.9,30.58,WSW,257,4.0,8.0,55,0.00,,SKC,0.00,VWS V14.01,2013-05-01 19:20:00,
2013-05-01 12:25:00,55.1,40.6,30.58,West,265,7.0,8.0,58,0.00,,SKC,0.00,VWS V14.01,2013-05-01 19:25:00,
2013-05-01 12:30:00,54.7,37.9,30.58,WSW,254,7.0,7.0,53,0.00,,SKC,0.00,VWS V14.01,2013-05-01 19:30:00,
2013-05-01 12:35:00,55.2,38.9,30.57,SW,230,6.0,9.0,54,0.00,,SKC,0.00,VWS V14.01,2013-05-01 19:35:00,
2013-05-01 12:40:00,55.3,38.5,30.57,WSW,253,7.0,9.0,53,0.00,,SKC,0.00,VWS V14.01,2013-05-01 19:40:00,
2013-05-01 12:45:00,55.2,37.9,30.57,WSW,256,5.0,6.0,52,0.00,,SKC,0.00,VWS V14.01,2013-05-01 19:45:00,
2013-05-01 12:50:00,55.3,39.0,30.57,West,279,6.0,6.0,54,0.00,,SKC,0.00,VWS V14.01,2013-05-01 19:50:00,
2013-05-01 12:55:00,55.6,39.2,30.57,West,260,7.0,8.0,54,0.00,,SKC,0.00,VWS V14.01,2013-05-01 19:55:00,
2013-05-01 13:00:00,55.6,37.8,30.57,WSW,252,5.0,8.0,51,0.00,,SKC,0.00,VWS V14.01,2013-05-01 20:00:00,
2013-05-01 13:05:00,55.9,38.5,30.57,WSW,250,7.0,9.0,52,0.00,,SKC,0.00,VWS V14.01,2013-05-01 20:05:00,
2013-05-01 13:10:00,56.0,38.6,30.57,WSW,254,5.0,9.0,52,0.00,,SKC,0.00,VWS V14.01,2013-05-01 20:10:00,
2013-05-01 13:16:00,56.1,39.2,30.57,SW,235,5.0,6.0,53,0.00,,SKC,0.00,VWS V14.01,2013-05-01 20:16:00,
2013-05-01 13:21:00,56.5,39.1,30.57,WNW,286,4.0,9.0,52,0.00,,SKC,0.00,VWS V14.01,2013-05-01 20:21:00,
2013-05-01 13:26:00,56.5,40.1,30.57,WSW,244,7.0,10.0,54,0.00,,SKC,0.00,VWS V14.01,2013-05-01 20:26:00,
2013-05-01 13:31:00,56.5,38.1,30.57,WSW,252,6.0,9.0,50,0.00,,SKC,0.00,VWS V14.01,2013-05-01 20:31:00,
2013-05-01 13:36:00,56.5,39.6,30.57,WSW,252,7.0,11.0,53,0.00,,SKC,0.00,VWS V14.01,2013-05-01 20:36:00,
2013-05-01 13:41:00,57.0,41.9,30.57,WSW,244,9.0,11.0,57,0.00,,SKC,0.00,VWS V14.01,2013-05-01 20:41:00,
2013-05-01 13:46:00,57.0,40.1,30.57,West,261,5.0,7.0,53,0.00,,SKC,0.00,VWS V14.01,2013-05-01 20:46:00,
2013-05-01 13:51:00,57.2,40.2,30.57,WNW,283,8.0,10.0,53,0.00,,SKC,0.00,VWS V14.01,2013-05-01 20:51:00,
2013-05-01 13:56:00,57.3,38.8,30.57,WSW,246,6.0,11.0,50,0.00,,SKC,0.00,VWS V14.01,2013-05-01 20:56:00,
2013-05-01 14:01:00,57.3,39.8,30.58,West,272,9.0,10.0,52,0.00,,SKC,0.00,VWS V14.01,2013-05-01 21:01:00,
2013-05-01 14:06:00,57.2,40.7,30.57,West,269,9.0,11.0,54,0.00,,SKC,0.00,VWS V14.01,2013-05-01 21:06:00,
2013-05-01 14:11:00,57.4,39.4,30.57,WSW,252,7.0,11.0,51,0.00,,SKC,0.00,VWS V14.01,2013-05-01 21:11:00,
2013-05-01 14:16:00,57.3,39.8,30.57,WSW,246,11.0,12.0,52,0.00,,SKC,0.00,VWS V14.01,2013-05-01 21:16:00,
2013-05-01 14:21:00,57.0,39.1,30.57,WSW,258,10.0,12.0,51,0.00,,SKC,0.00,VWS V14.01,2013-05-01 21:21:00,
2013-05-01 14:26:00,57.1,40.6,30.57,West,271,8.0,13.0,54,0.00,,SKC,0.00,VWS V14.01,2013-05-01 21:26:00,
2013-05-01 14:31:00,57.4,39.9,30.57,West,268,9.0,12.0,52,0.00,,SKC,0.00,VWS V14.01,2013-05-01 21:31:00,
2013-05-01 14:36:00,57.7,40.2,30.57,West,268,6.0,12.0,52,0.00,,SKC,0.00,VWS V14.01,2013-05-01 21:36:00,
2013-05-01 14:41:00,58.0,39.5,30.57,WNW,284,8.0,13.0,50,0.00,,SKC,0.00,VWS V14.01,2013-05-01 21:41:00,
2013-05-01 14:46:00,58.2,40.7,30.57,West,277,5.0,9.0,52,0.00,,SKC,0.00,VWS V14.01,2013-05-01 21:46:00,
2013-05-01 14:51:00,58.2,38.1,30.57,West,273,6.0,10.0,47,0.00,,SKC,0.00,VWS V14.01,2013-05-01 21:51:00,
2013-05-01 14:56:00,58.4,38.3,30.57,WSW,243,9.0,10.0,47,0.00,,SKC,0.00,VWS V14.01,2013-05-01 21:56:00,
2013-05-01 15:01:00,58.5,37.8,30.57,West,265,9.0,11.0,46,0.00,,SKC,0.00,VWS V14.01,2013-05-01 22:01:00,
2013-05-01 15:06:00,58.4,39.8,30.57,WSW,248,10.0,11.0,50,0.00,,SKC,0.00,VWS V14.01,2013-05-01 22:06:00,
2013-05-01 15:11:00,58.2,40.7,30.57,WSW,248,6.0,13.0,52,0.00,,SKC,0.00,VWS V14.01,2013-05-01 22:11:00,
2013-05-01 15:16:00,58.4,40.4,30.57,West,261,8.0,12.0,51,0.00,,SKC,0.00,VWS V14.01,2013-05-01 22:16:00,
2013-05-01 15:21:00,58.7,41.6,30.56,West,269,9.0,12.0,53,0.00,,SKC,0.00,VWS V14.01,2013-05-01 22:21:00,
2013-05-01 15:26:00,59.1,41.5,30.56,West,275,9.0,12.0,52,0.00,,SKC,0.00,VWS V14.01,2013-05-01 22:26:00,
2013-05-01 15:31:00,59.1,42.0,30.56,West,269,7.0,8.0,53,0.00,,SKC,0.00,VWS V14.01,2013-05-01 22:31:00,
2013-05-01 15:36:00,59.3,40.7,30.56,West,281,8.0,11.0,50,0.00,,SKC,0.00,VWS V14.01,2013-05-01 22:36:00,
2013-05-01 15:41:00,59.3,42.2,30.57,WSW,254,11.0,11.0,53,0.00,,SKC,0.00,VWS V14.01,2013-05-01 22:41:00,
2013-05-01 15:46:00,58.9,40.3,30.56,WSW,243,12.0,14.0,50,0.00,,SKC,0.00,VWS V14.01,2013-05-01 22:46:00,
2013-05-01 15:51:00,58.8,39.7,30.56,WSW,249,10.0,14.0,49,0.00,,SKC,0.00,VWS V14.01,2013-05-01 22:51:00,
2013-05-01 15:56:00,58.7,41.1,30.56,West,269,6.0,14.0,52,0.00,,SKC,0.00,VWS V14.01,2013-05-01 22:56:00,
2013-05-01 16:01:00,59.4,40.8,30.56,WSW,250,10.0,10.0,50,0.00,,SKC,0.00,VWS V14.01,2013-05-01 23:01:00,
2013-05-01 16:06:00,59.7,41.6,30.56,West,265,4.0,12.0,51,0.00,,SKC,0.00,VWS V14.01,2013-05-01 23:06:00,
2013-05-01 16:11:00,59.7,41.0,30.56,WNW,291,7.0,13.0,50,0.00,,SKC,0.00,VWS V14.01,2013-05-01 23:11:00,
2013-05-01 16:16:00,59.5,40.3,30.56,WSW,258,10.0,13.0,49,0.00,,SKC,0.00,VWS V14.01,2013-05-01 23:16:00,
2013-05-01 16:21:00,59.3,43.2,30.56,WSW,249,10.0,13.0,55,0.00,,SKC,0.00,VWS V14.01,2013-05-01 23:21:00,
2013-05-01 16:26:00,59.2,40.1,30.55,WSW,248,10.0,13.0,49,0.00,,SKC,0.00,VWS V14.01,2013-05-01 23:26:00,
2013-05-01 16:31:00,59.3,39.6,30.55,WSW,248,11.0,14.0,48,0.00,,SKC,0.00,VWS V14.01,2013-05-01 23:31:00,
2013-05-01 16:36:00,59.3,39.6,30.55,WSW,249,11.0,14.0,48,0.00,,SKC,0.00,VWS V14.01,2013-05-01 23:36:00,
2013-05-01 16:41:00,59.5,40.3,30.55,West,268,8.0,14.0,49,0.00,,SKC,0.00,VWS V14.01,2013-05-01 23:41:00,
2013-05-01 16:46:00,59.5,39.8,30.55,West,263,12.0,12.0,48,0.00,,SKC,0.00,VWS V14.01,2013-05-01 23:46:00,
2013-05-01 16:51:00,59.5,41.4,30.55,WSW,252,9.0,13.0,51,0.00,,SKC,0.00,VWS V14.01,2013-05-01 23:51:00,
2013-05-01 16:56:00,59.7,40.5,30.54,WSW,244,7.0,13.0,49,0.00,,SKC,0.00,VWS V14.01,2013-05-01 23:56:00,
2013-05-01 17:01:00,59.8,39.5,30.55,WSW,256,10.0,11.0,47,0.00,,SKC,0.00,VWS V14.01,2013-05-02 00:01:00,
2013-05-01 17:06:00,60.1,41.9,30.55,WSW,254,9.0,12.0,51,0.00,,SKC,0.00,VWS V14.01,2013-05-02 00:06:00,
2013-05-01 17:11:00,60.1,39.8,30.54,West,269,8.0,13.0,47,0.00,,SKC,0.00,VWS V14.01,2013-05-02 00:11:00,
2013-05-01 17:16:00,60.4,39.5,30.54,SW,215,7.0,9.0,46,0.00,,SKC,0.00,VWS V14.01,2013-05-02 00:16:00,
2013-05-01 17:21:00,60.5,37.3,30.54,SW,225,7.0,9.0,42,0.00,,SKC,0.00,VWS V14.01,2013-05-02 00:21:00,
2013-05-01 17:26:00,60.7,39.3,30.54,SW,225,1.0,9.0,45,0.00,,SKC,0.00,VWS V14.01,2013-05-02 00:26:00,
2013-05-01 17:31:00,61.5,39.4,30.54,West,267,3.0,7.0,44,0.00,,SKC,0.00,VWS V14.01,2013-05-02 00:31:00,
2013-05-01 17:36:00,62.1,38.8,30.54,NNW,337,0.0,7.0,42,0.00,,SKC,0.00,VWS V14.01,2013-05-02 00:36:00,
2013-05-01 17:41:00,62.9,37.6,30.54,WNW,294,2.0,7.0,39,0.00,,SKC,0.00,VWS V14.01,2013-05-02 00:41:00,
2013-05-01 17:46:00,63.1,38.4,30.54,West,268,1.0,4.0,40,0.00,,SKC,0.00,VWS V14.01,2013-05-02 00:46:00,
2013-05-01 17:51:00,63.6,36.9,30.54,NNW,330,0.0,4.0,37,0.00,,SKC,0.00,VWS V14.01,2013-05-02 00:51:00,
2013-05-01 17:56:00,63.8,38.4,30.54,WNW,303,4.0,7.0,39,0.00,,SKC,0.00,VWS V14.01,2013-05-02 00:56:00,
2013-05-01 18:01:00,63.7,38.3,30.54,NW,306,1.0,2.0,39,0.00,,SKC,0.00,VWS V14.01,2013-05-02 01:01:00,
2013-05-01 18:07:00,63.8,39.0,30.54,NNW,348,3.0,4.0,40,0.00,,SKC,0.00,VWS V14.01,2013-05-02 01:07:00,
2013-05-01 18:12:00,63.5,38.1,30.54,WNW,301,1.0,5.0,39,0.00,,SKC,0.00,VWS V14.01,2013-05-02 01:12:00,
2013-05-01 18:17:00,63.5,38.1,30.54,NE,53,0.0,1.0,39,0.00,,SKC,0.00,VWS V14.01,2013-05-02 01:17:00,
2013-05-01 18:22:00,63.8,38.4,30.54,North,351,2.0,6.0,39,0.00,,SKC,0.00,VWS V14.01,2013-05-02 01:22:00,
2013-05-01 18:27:00,63.4,38.0,30.53,North,355,1.0,6.0,39,0.00,,SKC,0.00,VWS V14.01,2013-05-02 01:27:00,
2013-05-01 18:32:00,63.4,38.0,30.54,NW,317,2.0,5.0,39,0.00,,SKC,0.00,VWS V14.01,2013-05-02 01:32:00,
2013-05-01 18:37:00,63.2,39.1,30.54,NW,325,0.0,5.0,41,0.00,,SKC,0.00,VWS V14.01,2013-05-02 01:37:00,
2013-05-01 18:42:00,63.2,38.5,30.53,NNW,346,5.0,6.0,40,0.00,,SKC,0.00,VWS V14.01,2013-05-02 01:42:00,
2013-05-01 18:47:00,62.6,38.6,30.53,NNW,344,4.0,7.0,41,0.00,,SKC,0.00,VWS V14.01,2013-05-02 01:47:00,
2013-05-01 18:52:00,62.3,38.9,30.53,NE,44,1.0,7.0,42,0.00,,SKC,0.00,VWS V14.01,2013-05-02 01:52:00,
2013-05-01 18:57:00,62.4,39.6,30.53,NW,324,4.0,7.0,43,0.00,,SKC,0.00,VWS V14.01,2013-05-02 01:57:00,
2013-05-01 19:02:00,62.6,39.2,30.53,NNE,24,1.0,5.0,42,0.00,,SKC,0.00,VWS V14.01,2013-05-02 02:02:00,
2013-05-01 19:07:00,62.5,39.1,30.53,NNW,340,1.0,5.0,42,0.00,,SKC,0.00,VWS V14.01,2013-05-02 02:07:00,
2013-05-01 19:12:00,62.8,40.0,30.53,WNW,297,0.0,5.0,43,0.00,,SKC,0.00,VWS V14.01,2013-05-02 02:12:00,
2013-05-01 19:17:00,62.8,39.4,30.53,NNW,342,5.0,6.0,42,0.00,,SKC,0.00,VWS V14.01,2013-05-02 02:17:00,
2013-05-01 19:22:00,62.4,39.0,30.53,WNW,295,1.0,6.0,42,0.00,,SKC,0.00,VWS V14.01,2013-05-02 02:22:00,
2013-05-01 19:27:00,62.2,38.8,30.53,NNE,30,2.0,6.0,42,0.00,,SKC,0.00,VWS V14.01,2013-05-02 02:27:00,
2013-05-01 19:32:00,61.6,38.9,30.53,NNE,20,4.0,4.0,43,0.00,,SKC,0.00,VWS V14.01,2013-05-02 02:32:00,
2013-05-01 19:37:00,61.2,38.5,30.53,NW,315,4.0,5.0,43,0.00,,SKC,0.00,VWS V14.01,2013-05-02 02:37:00,
2013-05-01 19:42:00,60.5,38.5,30.53,NNW,342,0.0,5.0,44,0.00,,SKC,0.00,VWS V14.01,2013-05-02 02:42:00,
2013-05-01 19:47:00,60.2,38.2,30.53,NE,40,2.0,7.0,44,0.00,,SKC,0.00,VWS V14.01,2013-05-02 02:47:00,
2013-05-01 19:52:00,59.8,38.4,30.53,WNW,288,1.0,7.0,45,0.00,,SKC,0.00,VWS V14.01,2013-05-02 02:52:00,
2013-05-01 19:57:00,59.3,38.0,30.53,NW,325,3.0,7.0,45,0.00,,SKC,0.00,VWS V14.01,2013-05-02 02:57:00,
2013-05-01 20:02:00,58.8,37.5,30.53,NNE,26,0.0,5.0,45,0.00,,SKC,0.00,VWS V14.01,2013-05-02 03:02:00,
2013-05-01 20:07:00,58.2,37.5,30.54,NW,321,0.0,7.0,46,0.00,,SKC,0.00,VWS V14.01,2013-05-02 03:07:00,
2013-05-01 20:12:00,57.6,37.5,30.54,NNW,339,1.0,7.0,47,0.00,,SKC,0.00,VWS V14.01,2013-05-02 03:12:00,
2013-05-01 20:17:00,57.2,37.7,30.54,North,5,0.0,1.0,48,0.00,,SKC,0.00,VWS V14.01,2013-05-02 03:17:00,
2013-05-01 20:22:00,56.8,37.9,30.54,NW,315,2.0,2.0,49,0.00,,SKC,0.00,VWS V14.01,2013-05-02 03:22:00,
2013-05-01 20:27:00,56.4,37.5,30.54,WNW,295,2.0,2.0,49,0.00,,SKC,0.00,VWS V14.01,2013-05-02 03:27:00,
2013-05-01 20:32:00,56.1,37.2,30.54,NW,326,0.0,5.0,49,0.00,,SKC,0.00,VWS V14.01,2013-05-02 03:32:00,
2013-05-01 20:37:00,55.8,36.9,30.54,WNW,288,0.0,5.0,49,0.00,,SKC,0.00,VWS V14.01,2013-05-02 03:37:00,
2013-05-01 20:42:00,55.5,37.2,30.54,WNW,294,0.0,5.0,50,0.00,,SKC,0.00,VWS V14.01,2013-05-02 03:42:00,
2013-05-01 20:47:00,55.0,36.7,30.54,NW,313,0.0,0.0,50,0.00,,SKC,0.00,VWS V14.01,2013-05-02 03:47:00,
2013-05-01 20:52:00,54.6,36.8,30.54,NNE,26,0.0,1.0,51,0.00,,SKC,0.00,VWS V14.01,2013-05-02 03:52:00,
2013-05-01 20:57:00,54.2,37.0,30.54,NNE,28,0.0,1.0,52,0.00,,SKC,0.00,VWS V14.01,2013-05-02 03:57:00,
2013-05-01 21:01:00,54.0,37.8,30.54,WNW,286,1.0,3.0,54,0.00,,SKC,0.00,VWS V14.01,2013-05-02 04:01:00,
2013-05-01 21:02:00,54.0,37.8,30.54,WNW,290,0.0,3.0,54,0.00,,SKC,0.00,VWS V14.01,2013-05-02 04:02:00,
2013-05-01 21:03:00,54.1,37.8,30.54,WNW,290,0.0,3.0,54,0.00,,SKC,0.00,VWS V14.01,2013-05-02 04:03:00,
2013-05-01 21:04:00,54.0,37.8,30.54,WNW,287,2.0,3.0,54,0.00,,SKC,0.00,VWS V14.01,2013-05-02 04:04:00,
2013-05-01 21:09:00,54.0,38.2,30.55,SE,138,1.0,3.0,55,0.00,,SKC,0.00,VWS V14.01,2013-05-02 04:09:00,
2013-05-01 21:14:00,53.6,38.3,30.55,SE,139,0.0,3.0,56,0.00,,SKC,0.00,VWS V14.01,2013-05-02 04:14:00,
2013-05-01 21:19:00,53.3,39.8,30.55,SE,138,0.0,1.0,60,0.00,,SKC,0.00,VWS V14.01,2013-05-02 04:19:00,
2013-05-01 21:24:00,53.0,39.1,30.55,East,98,1.0,2.0,59,0.00,,SKC,0.00,VWS V14.01,2013-05-02 04:24:00,
2013-05-01 21:29:00,52.6,38.3,30.55,ESE,123,1.0,2.0,58,0.00,,SKC,0.00,VWS V14.01,2013-05-02 04:29:00,
2013-05-01 21:30:00,52.6,38.3,30.55,East,94,1.0,1.0,58,0.00,,SKC,0.00,VWS V14.01,2013-05-02 04:30:00,
2013-05-01 21:35:00,52.3,38.0,30.55,ESE,108,0.0,4.0,58,0.00,,SKC,0.00,VWS V14.01,2013-05-02 04:35:00,
2013-05-01 21:40:00,52.0,38.1,30.55,East,88,1.0,4.0,59,0.00,,SKC,0.00,VWS V14.01,2013-05-02 04:40:00,
2013-05-01 21:45:00,51.8,37.9,30.56,ESE,106,0.0,0.0,59,0.00,,SKC,0.00,VWS V14.01,2013-05-02 04:45:00,
2013-05-01 21:50:00,51.5,37.7,30.56,ESE,108,0.0,0.0,59,0.00,,SKC,0.00,VWS V14.01,2013-05-02 04:50:00,
2013-05-01 21:55:00,51.2,37.8,30.56,ESE,107,0.0,0.0,60,0.00,,SKC,0.00,VWS V14.01,2013-05-02 04:55:00,
2013-05-01 22:00:00,50.6,37.7,30.56,ESE,107,0.0,0.0,61,0.00,,SKC,0.00,VWS V14.01,2013-05-02 05:00:00,
2013-05-01 22:05:00,49.9,37.4,30.56,ESE,108,0.0,0.0,62,0.00,,SKC,0.00,VWS V14.01,2013-05-02 05:05:00,
2013-05-01 22:10:00,49.4,37.8,30.56,ESE,108,0.0,0.0,64,0.00,,SKC,0.00,VWS V14.01,2013-05-02 05:10:00,
2013-05-01 22:15:00,49.1,37.9,30.56,ESE,108,0.0,0.0,65,0.00,,SKC,0.00,VWS V14.01,2013-05-02 05:15:00,
2013-05-01 22:20:00,49.0,38.2,30.56,ESE,107,0.0,0.0,66,0.00,,SKC,0.00,VWS V14.01,2013-05-02 05:20:00,
2013-05-01 22:25:00,48.8,38.0,30.55,ESE,107,0.0,0.0,66,0.00,,SKC,0.00,VWS V14.01,2013-05-02 05:25:00,
2013-05-01 22:30:00,48.6,37.8,30.55,ESE,107,0.0,0.0,66,0.00,,SKC,0.00,VWS V14.01,2013-05-02 05:30:00,
2013-05-01 22:35:00,48.2,37.4,30.55,ESE,107,0.0,0.0,66,0.00,,SKC,0.00,VWS V14.01,2013-05-02 05:35:00,
2013-05-01 22:40:00,47.6,37.6,30.55,ESE,108,0.0,0.0,68,0.00,,SKC,0.00,VWS V14.01,2013-05-02 05:40:00,
2013-05-01 22:45:00,47.1,38.2,30.55,ESE,107,0.0,0.0,71,0.00,,SKC,0.00,VWS V14.01,2013-05-02 05:45:00,
2013-05-01 22:50:00,46.8,39.0,30.55,ESE,107,0.0,0.0,74,0.00,,SKC,0.00,VWS V14.01,2013-05-02 05:50:00,
2013-05-01 22:55:00,46.9,38.4,30.55,ESE,107,0.0,0.0,72,0.00,,SKC,0.00,VWS V14.01,2013-05-02 05:55:00,
2013-05-01 23:00:00,46.8,38.3,30.55,ESE,107,0.0,0.0,72,0.00,,SKC,0.00,VWS V14.01,2013-05-02 06:00:00,
2013-05-01 23:05:00,46.4,39.3,30.56,ESE,107,0.0,0.0,76,0.00,,SKC,0.00,VWS V14.01,2013-05-02 06:05:00,
2013-05-01 23:10:00,46.5,39.7,30.56,ESE,108,0.0,0.0,77,0.00,,SKC,0.00,VWS V14.01,2013-05-02 06:10:00,
2013-05-01 23:15:00,46.5,39.7,30.55,ESE,108,0.0,0.0,77,0.00,,SKC,0.00,VWS V14.01,2013-05-02 06:15:00,
2013-05-01 23:21:00,46.2,39.1,30.56,East,86,1.0,2.0,76,0.00,,SKC,0.00,VWS V14.01,2013-05-02 06:21:00,
2013-05-01 23:26:00,45.7,38.6,30.55,East,86,1.0,2.0,76,0.00,,SKC,0.00,VWS V14.01,2013-05-02 06:26:00,
2013-05-01 23:31:00,45.5,38.7,30.55,East,84,0.0,0.0,77,0.00,,SKC,0.00,VWS V14.01,2013-05-02 06:31:00,
2013-05-01 23:36:00,45.3,39.2,30.56,East,84,0.0,0.0,79,0.00,,SKC,0.00,VWS V14.01,2013-05-02 06:36:00,
2013-05-01 23:41:00,45.2,39.7,30.56,East,84,0.0,0.0,81,0.00,,SKC,0.00,VWS V14.01,2013-05-02 06:41:00,
2013-05-01 23:46:00,45.0,39.2,30.56,East,84,0.0,0.0,80,0.00,,SKC,0.00,VWS V14.01,2013-05-02 06:46:00,
2013-05-01 23:51:00,44.7,38.9,30.56,East,85,0.0,0.0,80,0.00,,SKC,0.00,VWS V14.01,2013-05-02 06:51:00,
2013-05-01 23:56:00,44.5,38.7,30.56,East,85,0.0,0.0,80,0.00,,SKC,0.00,VWS V14.01,2013-05-02 06:56:00,